Weather History for KI39 - April, 2013

Change the Weather History Date:

Tuesday, April 16, 2013

  Actual Average (KLOZ) Record (KLOZ)
Temperature  
Mean Temperature 72 °F 57 °F  
Max Temperature 82 °F 69 °F 86 °F (2002)
Min Temperature 62 °F 45 °F 25 °F (1962)
Degree Days  
Heating Degree Days 0 9  
Month to date heating degree days 177  
Since 1 July heating degree days 4002  
Cooling Degree Days 7 1  
Month to date cooling degree days 8  
Year to date cooling degree days 11  
Growing Degree Days 22 (Base 50)    
Moisture  
Dew Point 57 °F    
Average Humidity 62    
Maximum Humidity 78    
Minimum Humidity 45    
Precipitation  
Precipitation 0.00 in 0.13 in 2.62 in (1998)
Month to date precipitation 2.07  
Year to date precipitation 13.37  
Sea Level Pressure  
Sea Level Pressure 30.10 in    
Wind  
Wind Speed 11 mph (SSW)    
Max Wind Speed 20 mph    
Max Gust Speed 29 mph    
Visibility 10 miles    
Events      
T = Trace of Precipitation, MM = Missing Value Source: NWS Daily Summary

Daily Weather History Graph

Daily Weather History Graph

Search for Another Location

Airport or City:

Trip Planner

Search our weather history database for the weather conditions in past years. The results will help you decide how hot, cold, wet, or windy it might be!

Date:

Astronomy

Apr. 16, 2013 Rise Set
Actual Time 7:00 AM EDT 8:14 PM EDT
Civil Twilight 6:33 AM EDT 8:41 PM EDT
Nautical Twilight 6:01 AM EDT 9:13 PM EDT
Astronomical Twilight 5:27 AM EDT 9:47 PM EDT
Moon 11:21 AM EDT (4/16) 1:07 AM EDT (4/16)
Length of Visible Light 14h 07m
Length of Day
13h 13m
Waxing Crescent, 33% of the Moon is Illuminated
Apr 16
Waxing Crescent
Apr 18
First Quarter
Apr 25
Full
May 2
Last Quarter
May 9
New

Hourly Weather History & Observations

Time (EDT) Temp. Heat Index Dew Point Humidity Pressure Visibility Wind Dir Wind Speed Gust Speed Precip Events Conditions
12:15 AM 66.2 °F - 51.8 °F 60% 30.01 in 10.0 mi South 6.9 mph - N/A   Clear
12:35 AM 66.2 °F - 51.8 °F 60% 30.01 in 10.0 mi South 5.8 mph - N/A   Clear
12:55 AM 66.2 °F - 51.8 °F 60% 30.01 in 10.0 mi South 8.1 mph - N/A   Clear
1:15 AM 66.2 °F - 51.8 °F 60% 30.01 in 10.0 mi South 9.2 mph - N/A   Clear
1:35 AM 68.0 °F - 51.8 °F 56% 30.01 in 10.0 mi South 15.0 mph 19.6 mph N/A   Clear
1:55 AM 68.0 °F - 51.8 °F 56% 30.01 in 10.0 mi South 16.1 mph 23.0 mph N/A   Clear
2:15 AM 66.2 °F - 53.6 °F 64% 30.01 in 10.0 mi South 17.3 mph 24.2 mph N/A   Clear
2:35 AM 68.0 °F - 53.6 °F 60% 30.00 in 10.0 mi South 17.3 mph 25.3 mph N/A   Clear
2:55 AM 66.2 °F - 53.6 °F 64% 30.00 in 10.0 mi SSW 19.6 mph 28.8 mph N/A   Clear
3:15 AM 66.2 °F - 53.6 °F 64% 30.01 in 10.0 mi SSW 13.8 mph 25.3 mph N/A   Clear
3:35 AM 66.2 °F - 53.6 °F 64% 30.01 in 10.0 mi SSW 16.1 mph 23.0 mph N/A   Clear
3:55 AM 66.2 °F - 53.6 °F 64% 30.01 in 10.0 mi SSW 12.7 mph 18.4 mph N/A   Clear
4:15 AM 64.4 °F - 53.6 °F 68% 30.01 in 10.0 mi SSW 12.7 mph 18.4 mph N/A   Clear
4:35 AM 64.4 °F - 53.6 °F 68% 30.03 in 10.0 mi SSW 9.2 mph - N/A   Clear
4:55 AM 64.4 °F - 53.6 °F 68% 30.04 in 10.0 mi SSW 8.1 mph - N/A   Clear
5:15 AM 62.6 °F - 53.6 °F 72% 30.05 in 10.0 mi SSW 8.1 mph - N/A   Clear
5:35 AM 62.6 °F - 53.6 °F 72% 30.05 in 10.0 mi South 11.5 mph - N/A   Clear
5:55 AM 64.4 °F - 53.6 °F 68% 30.06 in 10.0 mi SSW 11.5 mph - N/A   Clear
6:15 AM 64.4 °F - 53.6 °F 68% 30.07 in 10.0 mi SSW 10.4 mph 16.1 mph N/A   Clear
6:35 AM 64.4 °F - 53.6 °F 68% 30.08 in 10.0 mi SSW 10.4 mph 17.3 mph N/A   Clear
6:55 AM 62.6 °F - 53.6 °F 72% 30.09 in 10.0 mi SSW 11.5 mph - N/A   Clear
7:15 AM 62.6 °F - 53.6 °F 72% 30.10 in 10.0 mi SSW 12.7 mph - N/A   Clear
7:35 AM 62.6 °F - 55.4 °F 77% 30.11 in 10.0 mi SSW 10.4 mph - N/A   Clear
7:55 AM 64.4 °F - 55.4 °F 73% 30.12 in 10.0 mi SSW 11.5 mph 17.3 mph N/A   Clear
8:15 AM 64.4 °F - 55.4 °F 73% 30.13 in 10.0 mi SSW 10.4 mph - N/A   Scattered Clouds
8:35 AM 64.4 °F - 55.4 °F 73% 30.14 in 10.0 mi SSW 13.8 mph 17.3 mph N/A   Scattered Clouds
8:55 AM 66.2 °F - 55.4 °F 68% 30.15 in 10.0 mi South 11.5 mph 18.4 mph N/A   Scattered Clouds
9:15 AM 66.2 °F - 55.4 °F 68% 30.16 in 10.0 mi SSW 12.7 mph 19.6 mph N/A   Clear
9:35 AM 68.0 °F - 57.2 °F 68% 30.16 in 10.0 mi SSW 11.5 mph 18.4 mph N/A   Clear
9:55 AM 69.8 °F - 57.2 °F 64% 30.17 in 10.0 mi SSW 13.8 mph - N/A   Scattered Clouds
10:15 AM 69.8 °F - 57.2 °F 64% 30.16 in 10.0 mi SSW 16.1 mph 23.0 mph N/A   Clear
10:35 AM 71.6 °F - 57.2 °F 60% 30.17 in 10.0 mi SW 19.6 mph 24.2 mph N/A   Scattered Clouds
10:55 AM 71.6 °F - 59.0 °F 64% 30.17 in 10.0 mi SSW 17.3 mph 23.0 mph N/A   Scattered Clouds
11:15 AM 73.4 °F - 59.0 °F 61% 30.17 in 10.0 mi SSW 16.1 mph 24.2 mph N/A   Scattered Clouds
11:55 AM 75.2 °F - 59.0 °F 57% 30.17 in 10.0 mi SW 15.0 mph 21.9 mph N/A   Scattered Clouds
12:15 PM 75.2 °F - 59.0 °F 57% 30.17 in 10.0 mi SW 13.8 mph 24.2 mph N/A   Scattered Clouds
12:35 PM 75.2 °F - 60.8 °F 61% 30.17 in 10.0 mi SSW 13.8 mph 19.6 mph N/A   Clear
12:55 PM 77.0 °F - 60.8 °F 57% 30.16 in 10.0 mi SW 13.8 mph 19.6 mph N/A   Clear
1:15 PM 77.0 °F - 60.8 °F 57% 30.15 in 10.0 mi SW 13.8 mph 19.6 mph N/A   Clear
1:35 PM 77.0 °F - 60.8 °F 57% 30.15 in 10.0 mi SSW 12.7 mph 20.7 mph N/A   Clear
1:55 PM 78.8 °F - 60.8 °F 54% 30.14 in 10.0 mi SW 11.5 mph 21.9 mph N/A   Scattered Clouds
2:15 PM 77.0 °F - 60.8 °F 57% 30.13 in 10.0 mi SSW 12.7 mph - N/A   Scattered Clouds
2:35 PM 78.8 °F - 60.8 °F 54% 30.13 in 10.0 mi SW 11.5 mph - N/A   Scattered Clouds
2:55 PM 80.6 °F 81.5 °F 60.8 °F 51% 30.12 in 10.0 mi SSW 12.7 mph 18.4 mph N/A   Scattered Clouds
3:15 PM 80.6 °F 81.5 °F 60.8 °F 51% 30.11 in 10.0 mi SW 8.1 mph - N/A   Scattered Clouds
3:35 PM 80.6 °F 81.5 °F 60.8 °F 51% 30.11 in 10.0 mi SW 10.4 mph 17.3 mph N/A   Scattered Clouds
4:15 PM 80.6 °F 81.5 °F 60.8 °F 51% 30.10 in 10.0 mi SSW 12.7 mph 18.4 mph N/A   Clear
4:35 PM 80.6 °F 81.5 °F 60.8 °F 51% 30.09 in 10.0 mi SW 8.1 mph - N/A   Scattered Clouds
4:55 PM 80.6 °F 81.5 °F 60.8 °F 51% 30.09 in 10.0 mi SW 10.4 mph - N/A   Scattered Clouds
5:15 PM 80.6 °F 81.5 °F 60.8 °F 51% 30.08 in 10.0 mi SSW 10.4 mph - N/A   Scattered Clouds
5:35 PM 80.6 °F 81.1 °F 59.0 °F 48% 30.08 in 10.0 mi SW 9.2 mph - N/A   Clear
5:55 PM 82.4 °F 82.5 °F 59.0 °F 45% 30.08 in 10.0 mi SSW 10.4 mph - N/A   Scattered Clouds
6:15 PM 80.6 °F 81.1 °F 59.0 °F 48% 30.08 in 10.0 mi WSW 9.2 mph - N/A   Scattered Clouds
6:35 PM 80.6 °F 81.1 °F 59.0 °F 48% 30.08 in 10.0 mi WSW 9.2 mph - N/A   Clear
6:55 PM 80.6 °F 81.1 °F 59.0 °F 48% 30.09 in 10.0 mi WSW 9.2 mph - N/A   Clear
7:15 PM 78.8 °F - 59.0 °F 51% 30.09 in 7.0 mi WSW 8.1 mph - N/A   Scattered Clouds
7:35 PM 77.0 °F - 60.8 °F 57% 30.08 in 7.0 mi WSW 5.8 mph - N/A   Scattered Clouds
7:55 PM 75.2 °F - 60.8 °F 61% 30.09 in 7.0 mi WSW 6.9 mph - N/A   Scattered Clouds
8:15 PM 75.2 °F - 60.8 °F 61% 30.10 in 7.0 mi West 4.6 mph - N/A   Clear
8:35 PM 75.2 °F - 60.8 °F 61% 30.11 in 10.0 mi West 3.5 mph - N/A   Scattered Clouds
8:55 PM 75.2 °F - 60.8 °F 61% 30.12 in 10.0 mi West 3.5 mph - N/A   Scattered Clouds
9:15 PM 73.4 °F - 60.8 °F 65% 30.12 in 10.0 mi WSW 3.5 mph - N/A   Mostly Cloudy
9:35 PM 71.6 °F - 60.8 °F 69% 30.12 in 10.0 mi Calm Calm - N/A   Mostly Cloudy
9:55 PM 73.4 °F - 60.8 °F 65% 30.13 in 10.0 mi Calm Calm - N/A   Overcast
10:15 PM 71.6 °F - 60.8 °F 69% 30.15 in 10.0 mi North 5.8 mph - N/A   Overcast
10:35 PM 66.2 °F - 59.0 °F 78% 30.15 in 10.0 mi NNE 9.2 mph 16.1 mph N/A   Overcast
10:55 PM 66.2 °F - 59.0 °F 78% 30.15 in 10.0 mi NE 8.1 mph 17.3 mph N/A   Mostly Cloudy
11:15 PM 64.4 °F - 57.2 °F 77% 30.15 in 10.0 mi East 10.4 mph - N/A   Overcast